When you browse on this site, cookies collect data to enhance your experience and personalize the content and advertising you see.
Visit our Privacy Policy to learn more. By continuing to use the site, you agree to this use of cookies and data.
  • En España
  • Lista de países
  • Para 7 días
  • Temperatura del agua
  • El tiempo en el mapa
  • Informadores
  • user-avatar
    Iniciar sesión

    Tiempo cada hora Preston

    Hoy, 25 Enero, Sábado

    Tiempo Temperatura Precipitaciones Viento Presión Humedad
    00:00 +7°C° 0 mm 1 mps 761 mmHg 95%
    01:00 +7°C° 0 mm 1 mps 761 mmHg 95%
    02:00 +6°C° 0 mm 2 mps 761 mmHg 95%
    03:00 +6°C° 0 mm 2 mps 760 mmHg 95%
    04:00 +6°C° 0 mm 2 mps 760 mmHg 94%
    05:00 +6°C° 0 mm 2 mps 759 mmHg 94%
    06:00 +4°C° 0 mm 3 mps 759 mmHg 91%
    07:00 +4°C° 0 mm 3 mps 759 mmHg 91%
    08:00 +4°C° 0 mm 3 mps 759 mmHg 90%
    09:00 +4°C° 0 mm 3 mps 759 mmHg 89%
    10:00 +5°C° 0 mm 3 mps 759 mmHg 88%
    11:00 +5°C° 0 mm 3 mps 759 mmHg 86%
    12:00 +6°C° 0 mm 4 mps 759 mmHg 84%
    13:00 +6°C° 0 mm 4 mps 758 mmHg 83%
    14:00 +6°C° 0 mm 4 mps 758 mmHg 81%
    15:00 +6°C° 0 mm 4 mps 757 mmHg 79%
    16:00 +6°C° 0 mm 4 mps 757 mmHg 81%
    17:00 +5°C° 0 mm 4 mps 757 mmHg 83%
    18:00 +5°C° 0 mm 4 mps 756 mmHg 85%
    19:00 +5°C° 0 mm 4 mps 756 mmHg 87%
    20:00 +5°C° 0 mm 4 mps 756 mmHg 89%
    21:00 +5°C° 0 mm 4 mps 755 mmHg 91%
    22:00 +5°C° 0 mm 5 mps 755 mmHg 92%
    23:00 +5°C° 0 mm 5 mps 754 mmHg 92%

    Mañana, 26 Enero, Domingo

    Tiempo Temperatura Precipitaciones Viento Presión Humedad
    00:00 +5°C° 0 mm 5 mps 754 mmHg 92%
    01:00 +5°C° 0 mm 5 mps 753 mmHg 92%
    02:00 +5°C° 0 mm 5 mps 753 mmHg 92%
    03:00 +6°C° 0 mm 5 mps 752 mmHg 91%
    04:00 +5°C° 0 mm 5 mps 752 mmHg 91%
    05:00 +5°C° 0 mm 5 mps 751 mmHg 92%
    06:00 +3°C° 0 mm 5 mps 750 mmHg 92%
    07:00 +3°C° 0 mm 6 mps 750 mmHg 91%
    08:00 +3°C° 0 mm 6 mps 750 mmHg 89%
    09:00 +3°C° 0 mm 7 mps 750 mmHg 88%
    10:00 +4°C° 0.8 mm 7 mps 749 mmHg 88%
    11:00 +5°C° 0.8 mm 7 mps 749 mmHg 88%
    12:00 +5°C° 0.8 mm 8 mps 749 mmHg 88%
    13:00 +5°C° 0.2 mm 6 mps 749 mmHg 88%
    14:00 +5°C° 0.2 mm 5 mps 749 mmHg 88%
    15:00 +5°C° 0.2 mm 4 mps 749 mmHg 89%
    16:00 +5°C° 0.1 mm 4 mps 749 mmHg 89%
    17:00 +4°C° 0.1 mm 4 mps 749 mmHg 89%
    18:00 +4°C° 0.1 mm 4 mps 749 mmHg 90%
    19:00 +3°C° 0 mm 4 mps 750 mmHg 89%
    20:00 +3°C° 0 mm 3 mps 750 mmHg 88%
    21:00 +2°C° 0 mm 3 mps 750 mmHg 88%
    22:00 +2°C° 0 mm 3 mps 749 mmHg 88%
    23:00 +2°C° 0 mm 3 mps 749 mmHg 88%

    Pasado mañana, 27 Enero, Lunes

    Tiempo Temperatura Precipitaciones Viento Presión Humedad
    00:00 +1°C° 0 mm 4 mps 749 mmHg 89%
    01:00 +1°C° 0.2 mm 4 mps 748 mmHg 88%
    02:00 +1°C° 0.2 mm 5 mps 748 mmHg 88%
    03:00 +1°C° 0.2 mm 6 mps 747 mmHg 87%
    04:00 +2°C° 0.3 mm 5 mps 747 mmHg 88%
    05:00 +2°C° 0.3 mm 5 mps 746 mmHg 89%
    06:00 +2°C° 0.3 mm 5 mps 746 mmHg 90%
    07:00 +2°C° 0.4 mm 5 mps 746 mmHg 91%
    08:00 +2°C° 0.4 mm 5 mps 745 mmHg 92%
    09:00 +2°C° 0.4 mm 5 mps 745 mmHg 93%
    10:00 +3°C° 0.4 mm 5 mps 745 mmHg 89%
    11:00 +3°C° 0.4 mm 5 mps 745 mmHg 85%
    12:00 +5°C° 0.4 mm 5 mps 744 mmHg 80%
    13:00 +5°C° 0.1 mm 4 mps 744 mmHg 80%
    14:00 +5°C° 0.1 mm 4 mps 743 mmHg 79%
    15:00 +5°C° 0.1 mm 3 mps 742 mmHg 79%
    16:00 +4°C° 0.1 mm 3 mps 742 mmHg 82%
    17:00 +3°C° 0.1 mm 3 mps 741 mmHg 85%
    18:00 +3°C° 0.1 mm 3 mps 740 mmHg 87%
    19:00 +3°C° 0.7 mm 3 mps 740 mmHg 89%
    20:00 +3°C° 0.7 mm 3 mps 739 mmHg 91%
    21:00 +3°C° 0.7 mm 3 mps 739 mmHg 93%
    22:00 +3°C° 0.5 mm 4 mps 738 mmHg 92%
    23:00 +3°C° 0.5 mm 4 mps 738 mmHg 91%

    28 Enero, Martes

    Tiempo Temperatura Precipitaciones Viento Presión Humedad
    00:00 +3°C° 0.5 mm 4 mps 737 mmHg 90%
    01:00 +2°C° 0.4 mm 5 mps 737 mmHg 87%
    02:00 +1°C° 0.4 mm 6 mps 738 mmHg 83%
    03:00 0°C° 0.4 mm 7 mps 738 mmHg 79%
    04:00 0°C° 0.1 mm 7 mps 738 mmHg 78%
    05:00 -1°C° 0.1 mm 6 mps 738 mmHg 76%
    06:00 -1°C° 0.1 mm 6 mps 739 mmHg 74%
    07:00 0°C° 0.2 mm 5 mps 739 mmHg 75%
    08:00 0°C° 0.2 mm 5 mps 739 mmHg 76%
    09:00 0°C° 0.2 mm 5 mps 740 mmHg 77%
    10:00 +1°C° 0.2 mm 5 mps 740 mmHg 76%
    11:00 +2°C° 0.2 mm 6 mps 740 mmHg 75%
    12:00 +2°C° 0.2 mm 6 mps 741 mmHg 73%
    13:00 +2°C° 0.1 mm 6 mps 741 mmHg 75%
    14:00 +2°C° 0.1 mm 7 mps 741 mmHg 76%
    15:00 +2°C° 0.1 mm 7 mps 742 mmHg 78%
    16:00 +2°C° 0.1 mm 7 mps 742 mmHg 78%
    17:00 +2°C° 0.1 mm 7 mps 743 mmHg 79%
    18:00 0°C° 0.1 mm 7 mps 743 mmHg 80%
    19:00 +2°C° 0.1 mm 7 mps 744 mmHg 80%
    20:00 +1°C° 0.1 mm 8 mps 744 mmHg 79%
    21:00 +1°C° 0.1 mm 9 mps 745 mmHg 79%
    22:00 +1°C° 0.2 mm 9 mps 745 mmHg 79%
    23:00 +1°C° 0.2 mm 9 mps 745 mmHg 79%

    29 Enero, Miércoles

    Tiempo Temperatura Precipitaciones Viento Presión Humedad
    00:00 +2°C° 0.2 mm 9 mps 745 mmHg 79%
    01:00 +1°C° 0.3 mm 9 mps 746 mmHg 78%
    02:00 +1°C° 0.3 mm 9 mps 746 mmHg 76%
    03:00 0°C° 0.3 mm 9 mps 746 mmHg 75%
    04:00 0°C° 0.4 mm 9 mps 746 mmHg 75%
    05:00 0°C° 0.4 mm 9 mps 747 mmHg 76%
    06:00 0°C° 0.4 mm 9 mps 747 mmHg 76%
    07:00 0°C° 0.2 mm 9 mps 748 mmHg 76%
    08:00 0°C° 0.2 mm 9 mps 748 mmHg 75%
    09:00 0°C° 0.2 mm 9 mps 749 mmHg 75%
    10:00 +1°C° 0.1 mm 9 mps 749 mmHg 74%
    11:00 +1°C° 0.1 mm 9 mps 750 mmHg 73%
    12:00 +2°C° 0.1 mm 9 mps 751 mmHg 72%
    13:00 +2°C° 0.1 mm 8 mps 751 mmHg 73%
    14:00 +2°C° 0.1 mm 8 mps 751 mmHg 73%
    15:00 +3°C° 0.1 mm 7 mps 751 mmHg 74%
    16:00 +3°C° 0 mm 7 mps 752 mmHg 80%
    17:00 +3°C° 0 mm 6 mps 752 mmHg 85%
    18:00 +3°C° 0 mm 5 mps 752 mmHg 90%
    19:00 +3°C° 0 mm 6 mps 752 mmHg 89%
    20:00 +4°C° 0 mm 6 mps 751 mmHg 89%
    21:00 +4°C° 0 mm 7 mps 751 mmHg 89%
    22:00 +4°C° 0 mm 7 mps 751 mmHg 88%
    23:00 +4°C° 0 mm 8 mps 751 mmHg 88%

    30 Enero, Jueves

    Tiempo Temperatura Precipitaciones Viento Presión Humedad
    00:00 +4°C° 0 mm 8 mps 751 mmHg 88%
    01:00 +4°C° 0 mm 8 mps 751 mmHg 87%
    02:00 +4°C° 0 mm 8 mps 751 mmHg 87%
    03:00 +5°C° 0 mm 8 mps 751 mmHg 87%
    04:00 +4°C° 0 mm 7 mps 751 mmHg 88%
    05:00 +4°C° 0 mm 7 mps 751 mmHg 89%
    06:00 +4°C° 0 mm 6 mps 751 mmHg 91%
    07:00 +4°C° 0 mm 6 mps 751 mmHg 90%
    08:00 +5°C° 0 mm 5 mps 751 mmHg 90%
    09:00 +5°C° 0 mm 5 mps 751 mmHg 90%
    10:00 +6°C° 0 mm 5 mps 751 mmHg 86%
    11:00 +6°C° 0 mm 5 mps 751 mmHg 82%
    12:00 +7°C° 0 mm 5 mps 750 mmHg 79%
    13:00 +7°C° 0 mm 5 mps 750 mmHg 79%
    14:00 +7°C° 0 mm 4 mps 749 mmHg 79%
    15:00 +8°C° 0 mm 3 mps 749 mmHg 79%
    16:00 +8°C° 0 mm 3 mps 748 mmHg 82%
    17:00 +7°C° 0 mm 3 mps 748 mmHg 86%
    18:00 +5°C° 0 mm 3 mps 748 mmHg 89%
    19:00 +7°C° 0 mm 3 mps 748 mmHg 90%
    20:00 +7°C° 0 mm 3 mps 747 mmHg 91%
    21:00 +7°C° 0 mm 3 mps 747 mmHg 93%
    22:00 +7°C° 0 mm 3 mps 747 mmHg 93%
    23:00 +7°C° 0 mm 2 mps 746 mmHg 94%
    Mostrar más